Погода в Шайенне

США     41°08′04″N   104°47′53″W
темп.,
°C
ветер,
м/с
пор.,
м/с
влажн.,
%
обл.,
%
осадки,
мм/ч
давл.,
гПа
погр.,
м
21 октября, чт
чт2101:00+6юз595078 0.0 1020174
04:00+6з59432 0.0 1020131
07:00+6зсз494118 0.0 1020138
10:00+9з41235100 0.0 1021371
13:00+15зсз792397 0.0 10191284
16:00+17сз711245 0.0 10162341
19:00+13сз47354 0.0 1017110
22:00+9зюз35383 0.0 101964
22 октября, пт
пт2201:00+9з510320 0.0 1018182
04:00+9з513320 0.0 1016237
07:00+9з614300 0.0 1015238
10:00+12з713250 0.0 1014461
13:00+18з68170 0.0 10111468
16:00+20зюз47152 0.0 10072315
19:00+14ю582019 0.0 1008121
22:00+12ююз4622100 0.0 100883
23 октября, сб
сб2301:00+10юз33255 0.0 100731
04:00+11зсз442596 0.0 100629
07:00+9з4102890 0.0 1006135
10:00+12з41223100 0.0 1006338
13:00+15ююз4719100 0.0 1003578
16:00+15юз5719100 0.0 1002799
19:00+11ю2226100 0.0 100212
22:00+11зсз4526100 0.0 100367
24 октября, вс
вс2401:00+10з5843100 0.0 1003175
04:00+9сз3549100 0.0 1003137
07:00+7зсз5769100 0.3 1005547
10:00+7сз71067100 0.3 1007679
13:00+11зсз7103835 0.3 10071980
16:00+14з792844 0.0 10052527
19:00+11з5832100 0.0 1006183
22:00+8ююз2343100 0.0 100759
25 октября, пн
пн2501:00+7ю51248100 0.0 1007238
04:00+8ю81655100 0.0 1005520
07:00+5ю61272100 0.0 1004283
10:00+7ю71373100 0.0 1001280
13:00+16ю8122973 0.0 995572
16:00+22юз142322100 0.0 9902789
19:00+17юз12203267 0.0 9921435
22:00+6зсз1320640 0.0 998775